[[{"header":{"parameterUnit":"m.s-1","parameterCategory":1,"la1":30.2991,"la2":30.254,"lo1":-89.0895,"lo2":-89.0444,"dx":0.0017,"dy":0.0017,"nx":28,"ny":28,"refTime":"2022-11-13T15:00:00:Z","depth":0,"parameterNumber":2,"parameterNumberName":"U-component_of_WINDS"},"data":[0,0,0,0,0,0,0,0,0,0,0,0,0,0,0,0,0,0,0,0,0,0,0,0,0,0,0,0,0,0,0,0,0,0,0,0,0,0,0,0,0,0,0,0,0,0,0,0,0,0,0,0,0,0,0,0,0,0,-5.0352,-5.0353,0,-5.0404,-5.0404,-5.0405,-5.0234,-5.0229,-5.0224,-5.0219,-5.0273,-5.0279,-5.0285,0,0,0,0,0,0,0,0,0,0,0,0,0,-5.0105,-5.011,-5.0352,-5.0353,-5.0353,-5.0404,-5.0405,-5.0405,-5.0235,-5.0229,-5.0222,-5.0216,-5.0271,-5.0278,-5.0285,0,0,0,0,0,0,0,0,0,0,0,0,0,-5.019,-5.0112,-5.0352,-5.0274,-5.0268,-5.0404,-5.0405,-5.0405,-5.0236,-5.0228,-5.0221,-5.0213,-5.0268,-5.0277,-5.0286,-5.05,0,0,-5.0315,-5.0319,0,0,0,0,0,0,0,0,-5.0186,-5.0199,-5.0285,-5.028,-5.0273,-5.0304,-5.0337,-5.0437,-5.0238,-5.0248,-5.0219,-5.021,-5.029,-5.0297,-5.0323,-5.0502,-5.0504,-5.0316,-5.0322,-5.0326,-5.0328,0,0,0,0,0,0,0,-5.018,-5.0196,-5.0372,-5.0287,-5.0279,-5.0237,-5.024,-5.0355,-5.0312,-5.0247,-5.0235,-5.0243,-5.0285,-5.0315,-5.0323,-5.0505,-5.0316,-5.0324,-5.033,-5.0333,-5.0859,-5.0867,0,0,0,0,0,0,-5.0184,-5.0193,-5.0371,-5.0374,-5.0209,-5.0248,-5.0251,-5.0302,-5.031,-5.0304,-5.025,-5.0235,-5.0303,-5.0313,-5.0325,-5.0572,-5.0326,-5.0334,-5.034,-5.085,-5.0861,-5.087,0,0,0,0,0,0,-5.018,-5.0202,-5.0369,-5.028,-5.0298,-5.026,-5.0318,-5.0307,-5.0337,-5.0312,-5.0303,-5.0288,-5.0297,-5.0311,-5.0457,-5.0572,-5.0339,-5.0347,-5.0841,-5.0854,-5.0865,-5.1072,0,0,0,0,0,0,-5.0173,-5.0201,-5.0282,-5.0283,-5.0303,-5.0501,-5.0326,-5.0314,-5.0354,-5.0335,-5.0346,-5.0341,-5.0292,-5.0444,-5.0466,-5.0581,-5.0354,-5.083,-5.0846,-5.0861,-5.1054,-5.109,-5.112,0,0,0,0,0,-5.0165,-5.0339,-5.0287,-5.0309,-5.0404,-5.0508,-5.0519,-5.046,-5.0364,-5.0444,-5.0428,-5.034,-5.0556,-5.046,-5.0484,-5.0603,-5.0823,-5.0842,-5.086,-5.1039,-5.1083,-5.1119,0,0,0,0,0,0,-5.0353,-5.0338,-5.028,-5.0459,-5.0486,-5.0479,-5.0578,-5.0508,-5.0562,-5.0542,-5.0466,-5.047,-5.0629,-5.063,-5.0523,-5.0808,-5.0673,-5.0697,-5.0801,-5.0842,-5.0874,-5.0869,-5.0362,0,0,0,0,0,-5.0415,-5.0501,-5.0483,-5.0643,-5.0659,-5.0618,-5.066,-5.0612,-5.0637,-5.0647,-5.0641,-5.0669,-5.0742,-5.0792,-5.0859,-5.1054,-5.1053,-5.1148,-5.1181,-5.1208,-5.1229,-5.133,-5.1371,-5.0931,-5.0931,-5.0931,0,0,-5.0545,-5.0547,-5.0606,-5.0681,-5.0696,-5.0786,-5.0628,-5.073,-5.0796,-5.0663,-5.0798,-5.0796,-5.0821,-5.0992,-5.1067,-5.0998,-5.1351,-5.1232,-5.1253,-5.126,-5.1353,-5.1395,-5.1432,-5.0944,-5.0941,-5.0939,0,0,-5.0826,-5.0838,-5.097,-5.0989,-5.1013,-5.0984,-5.1016,-5.1019,-5.1012,-5.1147,-5.1048,-5.1126,-5.1255,-5.1276,-5.1304,-5.1593,-5.1514,-5.1617,-5.1787,-5.1887,-5.1921,-5.1952,-5.2053,-5.209,-5.1639,-5.1639,-5.164,0,-5.0984,-5.1115,-5.1048,-5.1157,-5.1192,-5.1075,-5.1208,-5.1229,-5.1275,-5.1302,-5.1225,-5.1383,-5.1392,-5.1564,-5.1635,-5.1662,-5.1695,-5.1614,-5.1922,-5.1952,-5.1979,-5.2074,-5.2113,-5.1652,-5.165,-5.1649,-5.1648,0,-5.1307,-5.1399,-5.1504,-5.155,-5.1597,-5.1718,-5.1669,-5.1724,-5.1672,-5.1651,-5.1789,-5.1796,-5.1861,-5.1899,-5.185,-5.2065,-5.2021,-5.1935,-5.1796,-5.2034,-5.2122,-5.2158,-5.1669,-5.1665,-5.1661,-5.1658,0,0,-5.1707,-5.1713,-5.1753,-5.1771,-5.1789,-5.1859,-5.1975,-5.2037,-5.2086,-5.2121,-5.2215,-5.2326,-5.2246,-5.2278,-5.2229,-5.2317,-5.2543,-5.2219,-5.2218,-5.2277,-5.2778,-5.2841,-5.2884,-5.2491,-5.2498,-5.2503,-5.2774,0,-5.1981,-5.2177,-5.212,-5.2317,-5.2401,-5.2291,-5.2391,-5.2413,-5.2396,-5.2465,-5.2446,-5.2525,-5.2414,-5.2432,-5.2514,-5.2498,-5.2642,-5.2478,-5.2576,-5.258,-5.257,-5.2931,-5.2998,-5.3254,-5.2809,-5.2815,-5.2819,0,-5.2327,-5.2375,-5.258,-5.2582,-5.2615,-5.2707,-5.2758,-5.2826,-5.2848,-5.2829,-5.2865,-5.2799,-5.2911,-5.2774,-5.2927,-5.2817,-5.2853,-5.2852,-5.286,-5.2865,-5.2712,-5.2943,-5.3335,-5.3372,-5.2873,-5.2869,-5.2865,0,-5.2596,-5.2712,-5.2848,-5.2868,-5.2875,-5.2941,-5.2947,-5.2961,-5.3002,-5.3048,-5.3073,-5.3133,-5.3165,-5.3212,-5.3163,-5.3068,-5.3323,-5.3182,-5.3309,-5.3311,-5.3366,-5.3363,-5.3766,-5.3395,-5.3394,-5.3393,-5.3392,0,-5.2907,-5.3036,-5.2968,-5.3053,-5.3194,-5.3127,-5.3268,-5.3262,-5.3276,-5.3356,-5.3266,-5.3343,-5.3275,-5.3346,-5.3309,-5.344,-5.3456,-5.3443,-5.3431,-5.345,-5.3451,-5.3471,-5.3451,-5.3403,-5.3401,-5.3399,-5.3397,0,-5.3229,-5.3189,-5.3331,-5.3326,-5.3327,-5.3431,-5.3426,-5.3503,-5.348,-5.3583,-5.3603,-5.3567,-5.3646,-5.3602,-5.3685,-5.3659,-5.3828,-5.3794,-5.3821,-5.381,-5.3939,-5.3927,-5.4368,-5.4421,-5.4018,-5.4022,-5.4025,0,-5.3429,-5.3525,-5.353,-5.3577,-5.3589,-5.3666,-5.3707,-5.3645,-5.3691,-5.3723,-5.3797,-5.3868,-5.3921,-5.4052,-5.4033,-5.4095,-5.4059,-5.421,-5.4068,-5.4083,-5.4058,-5.4052,-5.4061,-5.4238,-5.4242,-5.4246,-5.4249,0,-5.3787,-5.3762,-5.3824,-5.388,-5.3931,-5.3972,-5.4005,-5.4049,-5.3987,-5.4044,-5.4123,-5.4165,-5.4247,-5.4319,-5.4371,-5.4377,-5.4303,-5.4295,-5.4327,-5.4345,-5.4356,-5.4349,-5.3896,-5.4284,-5.4281,-5.4278,-5.4276,-5.4275,-5.4052,-5.4131,-5.4147,-5.4219,-5.4237,-5.427,-5.4342,-5.4327,-5.4392,-5.4454,-5.4414,-5.4507,-5.4525,-5.4588,-5.4603,-5.4675,-5.4614,-5.4662,-5.4673,-5.4685,-5.4702,-5.4347,-5.4685,-5.4684,-5.4683,-5.4682,-5.4681,0,-5.4402,-5.4407,-5.4474,-5.4522,-5.4579,-5.4505,-5.4538,-5.459,-5.4672,-5.4696,-5.475,-5.484,-5.4909,-5.4895,-5.4957,-5.5017,-5.4985,-5.5035,-5.5029,-5.5031,-5.4753,-5.4718,-5.506,-5.506,-5.506,-5.506,-5.506,-5.506,-5.4591,-5.4721,-5.4699,-5.4837,-5.484,-5.493,-5.4955,-5.4984,-5.5002,-5.5107,-5.5163,-5.5154,-5.5162,-5.5224,-5.5283,-5.5277,-5.5303,-5.5366,-5.5348,-5.5088,-5.5051,-5.5015,-5.4981,-5.5373,-5.5373,-5.5618,-5.562,-5.5622]},{"header":{"parameterUnit":"m.s-1","parameterCategory":1,"la1":30.2991,"la2":30.254,"lo1":-89.0895,"lo2":-89.0444,"dx":0.0017,"dy":0.0017,"nx":28,"ny":28,"refTime":"2022-11-13T15:00:00:Z","depth":0,"parameterNumber":3,"parameterNumberName":"V-component_of_WINDS"},"data":[0,0,0,0,0,0,0,0,0,0,0,0,0,0,0,0,0,0,0,0,0,0,0,0,0,0,0,0,0,0,0,0,0,0,0,0,0,0,0,0,0,0,0,0,0,0,0,0,0,0,0,0,0,0,0,0,0,0,-2.5545,-2.5545,0,-2.5573,-2.5574,-2.5574,-2.5585,-2.5585,-2.5585,-2.5584,-2.5611,-2.5612,-2.5613,0,0,0,0,0,0,0,0,0,0,0,0,0,-2.5495,-2.5496,-2.5545,-2.5545,-2.5546,-2.5573,-2.5574,-2.5574,-2.5585,-2.5585,-2.5585,-2.5584,-2.5611,-2.5612,-2.5613,0,0,0,0,0,0,0,0,0,0,0,0,0,-2.552,-2.5496,-2.5545,-2.5554,-2.5555,-2.5573,-2.5574,-2.5574,-2.5585,-2.5585,-2.5584,-2.5584,-2.5611,-2.5612,-2.5613,-2.5623,0,0,-2.5617,-2.5617,0,0,0,0,0,0,0,0,-2.5518,-2.5521,-2.5553,-2.5554,-2.5555,-2.5575,-2.5566,-2.559,-2.5585,-2.5574,-2.5584,-2.5584,-2.5599,-2.5602,-2.5607,-2.5624,-2.5625,-2.5617,-2.5618,-2.5618,-2.5619,0,0,0,0,0,0,0,-2.5516,-2.552,-2.5556,-2.5553,-2.5554,-2.5556,-2.5559,-2.5571,-2.5587,-2.5575,-2.5575,-2.5579,-2.56,-2.5606,-2.5608,-2.5626,-2.5617,-2.5618,-2.5619,-2.5619,-2.5649,-2.5649,0,0,0,0,0,0,-2.5514,-2.5519,-2.5555,-2.5557,-2.5536,-2.5557,-2.556,-2.5569,-2.5587,-2.5589,-2.5579,-2.5579,-2.5604,-2.5606,-2.5609,-2.5619,-2.5618,-2.5619,-2.562,-2.5649,-2.5649,-2.5649,0,0,0,0,0,0,-2.5513,-2.5517,-2.5554,-2.5538,-2.5543,-2.5558,-2.5567,-2.557,-2.5576,-2.559,-2.5592,-2.5582,-2.5604,-2.5607,-2.5619,-2.5621,-2.562,-2.5621,-2.5649,-2.5649,-2.5649,-2.5642,0,0,0,0,0,0,-2.5511,-2.5516,-2.5522,-2.5538,-2.5544,-2.5565,-2.5567,-2.557,-2.5578,-2.5578,-2.5594,-2.5596,-2.5604,-2.5617,-2.562,-2.5622,-2.5622,-2.5649,-2.5649,-2.5649,-2.5642,-2.5642,-2.5642,0,0,0,0,0,-2.5509,-2.5519,-2.5522,-2.5526,-2.5551,-2.5565,-2.5568,-2.5578,-2.5578,-2.5582,-2.5591,-2.5596,-2.562,-2.5618,-2.5622,-2.5624,-2.5649,-2.5649,-2.5649,-2.5642,-2.5642,-2.5642,0,0,0,0,0,0,-2.5502,-2.5521,-2.5525,-2.554,-2.5551,-2.5567,-2.5573,-2.5578,-2.5588,-2.5588,-2.5599,-2.5602,-2.5612,-2.562,-2.5617,-2.5633,-2.5634,-2.5635,-2.5628,-2.5628,-2.5628,-2.5626,-2.5623,0,0,0,0,0,-2.5502,-2.5514,-2.5529,-2.5541,-2.5546,-2.5558,-2.5565,-2.5571,-2.5583,-2.5587,-2.5597,-2.5607,-2.5616,-2.5623,-2.5632,-2.5643,-2.5645,-2.5646,-2.5646,-2.5646,-2.5646,-2.565,-2.565,-2.565,-2.565,-2.565,0,0,-2.5503,-2.5515,-2.5521,-2.554,-2.5549,-2.5559,-2.5562,-2.5573,-2.558,-2.5589,-2.56,-2.5607,-2.5619,-2.5629,-2.5634,-2.5635,-2.5647,-2.5646,-2.5646,-2.5646,-2.565,-2.565,-2.565,-2.565,-2.565,-2.565,0,0,-2.5509,-2.552,-2.553,-2.5538,-2.5552,-2.5559,-2.5561,-2.5576,-2.5581,-2.5593,-2.5598,-2.5606,-2.5623,-2.563,-2.5636,-2.5641,-2.5645,-2.5644,-2.5642,-2.5646,-2.5646,-2.5646,-2.5646,-2.5646,-2.5644,-2.5644,-2.5644,0,-2.5508,-2.5524,-2.5534,-2.5544,-2.5551,-2.5558,-2.5567,-2.5575,-2.559,-2.5594,-2.5595,-2.5615,-2.5623,-2.5634,-2.5635,-2.564,-2.5641,-2.5642,-2.5645,-2.5645,-2.5645,-2.5645,-2.5645,-2.5644,-2.5644,-2.5644,-2.5644,0,-2.5521,-2.5532,-2.5538,-2.5552,-2.556,-2.5569,-2.5578,-2.5584,-2.5589,-2.5596,-2.5606,-2.5616,-2.5627,-2.563,-2.5635,-2.5641,-2.5641,-2.5643,-2.5645,-2.5645,-2.5645,-2.5645,-2.5643,-2.5643,-2.5643,-2.5644,0,0,-2.5525,-2.5543,-2.5545,-2.555,-2.5564,-2.5572,-2.558,-2.5591,-2.5594,-2.5604,-2.561,-2.5623,-2.5624,-2.5631,-2.5636,-2.5639,-2.564,-2.5641,-2.5642,-2.5639,-2.5644,-2.5642,-2.5642,-2.5642,-2.5642,-2.5643,-2.5643,0,-2.5532,-2.5548,-2.5555,-2.5567,-2.5576,-2.5582,-2.5588,-2.5597,-2.5602,-2.5609,-2.5615,-2.5624,-2.5626,-2.563,-2.5633,-2.5639,-2.5641,-2.5639,-2.5646,-2.5647,-2.5643,-2.5642,-2.564,-2.5641,-2.5643,-2.5643,-2.5643,0,-2.5543,-2.5551,-2.5564,-2.5574,-2.5578,-2.5584,-2.5593,-2.56,-2.5608,-2.5612,-2.5618,-2.5622,-2.5629,-2.563,-2.5638,-2.5637,-2.564,-2.5643,-2.5643,-2.5644,-2.5645,-2.5642,-2.5641,-2.5641,-2.5644,-2.5644,-2.5644,0,-2.5542,-2.5557,-2.5566,-2.5571,-2.5583,-2.5587,-2.5592,-2.56,-2.5605,-2.5612,-2.5615,-2.5623,-2.5627,-2.5632,-2.5638,-2.5638,-2.5645,-2.5647,-2.5647,-2.5646,-2.5648,-2.5648,-2.5646,-2.5651,-2.5651,-2.5651,-2.5651,0,-2.5548,-2.5555,-2.5566,-2.5571,-2.5578,-2.5586,-2.5592,-2.5598,-2.5604,-2.5609,-2.5615,-2.562,-2.5627,-2.5632,-2.5637,-2.5642,-2.5644,-2.5646,-2.5647,-2.5645,-2.5645,-2.5647,-2.5647,-2.5651,-2.5651,-2.5651,-2.5651,0,-2.5549,-2.5557,-2.5566,-2.5577,-2.5579,-2.5584,-2.5592,-2.5596,-2.5601,-2.5608,-2.561,-2.5617,-2.5623,-2.563,-2.5638,-2.5641,-2.5645,-2.5647,-2.5642,-2.5643,-2.5642,-2.5641,-2.5642,-2.5641,-2.5647,-2.5647,-2.5647,0,-2.5553,-2.5558,-2.5568,-2.5572,-2.5577,-2.5583,-2.5588,-2.5594,-2.5599,-2.5607,-2.561,-2.5616,-2.5621,-2.563,-2.5636,-2.5641,-2.5643,-2.5642,-2.5644,-2.5641,-2.5641,-2.564,-2.564,-2.5642,-2.5642,-2.5642,-2.5642,0,-2.5557,-2.556,-2.5566,-2.5573,-2.5578,-2.5584,-2.559,-2.5593,-2.56,-2.5604,-2.561,-2.5614,-2.5622,-2.5627,-2.5633,-2.5637,-2.564,-2.5641,-2.5641,-2.5639,-2.5636,-2.5636,-2.564,-2.5641,-2.5641,-2.5641,-2.5641,-2.5641,-2.5558,-2.5562,-2.5569,-2.5576,-2.5581,-2.5585,-2.5589,-2.5594,-2.5599,-2.5606,-2.5609,-2.5615,-2.562,-2.5628,-2.5631,-2.5635,-2.5636,-2.5636,-2.5636,-2.5636,-2.5635,-2.5635,-2.5636,-2.5636,-2.5636,-2.5636,-2.5636,0,-2.5562,-2.5566,-2.5572,-2.5579,-2.5583,-2.5586,-2.5592,-2.5595,-2.56,-2.5605,-2.5609,-2.5614,-2.5619,-2.5624,-2.5629,-2.563,-2.5631,-2.5631,-2.5631,-2.5631,-2.5634,-2.5633,-2.563,-2.563,-2.563,-2.563,-2.563,-2.563,-2.5564,-2.557,-2.5573,-2.558,-2.5584,-2.559,-2.5593,-2.5596,-2.56,-2.5606,-2.5609,-2.5613,-2.5617,-2.5622,-2.5625,-2.5626,-2.5627,-2.5626,-2.5628,-2.5631,-2.5631,-2.5632,-2.5631,-2.5627,-2.5627,-2.5624,-2.5624,-2.5624]}]]